Regional Weather Roundup
Issued by NWS Sterling, VA

Home | Current Version | Previous Version | Graphics & Text | Print | Product List | Glossary On
Versions: 1 2 3 4 5 6 7 8 9 10 11 12 13 14 15 16 17 18 19 20 21 22 23 24 25 26 27 28 29 30 31 32 33 34 35 36 37 38 39 40 41 42 43 44 45 46 47 48 49 50
000
ASUS41 KLWX 231311
RWRLWX

REGIONAL WEATHER ROUNDUP
NATIONAL WEATHER SERVICE BALTIMORE MD/WASHINGTON DC
800 AM EST FRI FEB 23 2018

Note: "FAIR" indicates few or no clouds below 12,000 feet
with no significant weather and/or obstructions to visibility.
 TC=TEMPERATURE CELSIUS

 * =Non NWS site. Station does not report precipitation (e.g. rain,
    snow, etc.), thunder, or fog.

DCZ001-MDZ009-015-VAZ040>042-051-053>054-231400-
WASHINGTON METRO

CITY           SKY/WX    TMP DP  RH WIND       PRES   REMARKS
WASHINGTON NAT LGT RAIN  42  40  92 E7        30.60R FOG
DULLES         LGT RAIN  40  40 100 E6        30.57S
ANDREWS AFB    CLOUDY    39  37  93 E6        30.57S FOG     WCI  35
FT BELVOIR     CLOUDY    41  39  93 NE5       30.59S FOG
QUANTICO       CLOUDY    42  41  96 E7        30.60R FOG
COLLEGE PARK*  CLOUDY    39  37  94 CALM      30.60R
LEESBURG*      LGT RAIN  36  36 100 E3        30.59R
MANASSAS*      LGT RAIN  39  39 100 E5        30.58S
GAITHERSBURG*  LGT RAIN  38  37  97 SE6       30.58R FOG     WCI  33

$$

MDZ006>007-011-014-231400-
BALTIMORE METRO

CITY           SKY/WX    TMP DP  RH WIND       PRES   REMARKS
BWI AIRPORT    RAIN      39  39 100 E9        30.59R VSB 1   WCI  33
MD SCIENCE CTR   N/A     41  39  93 MISG      30.60R
MARTIN STATE   LGT RAIN  39  39 100 NE5       30.61S FOG
ANNAPOLIS      CLOUDY    42  41  96 NE3       30.60R FOG
FORT MEADE*    CLOUDY    37  37 100 E3        30.62R

$$

MDZ012-015-019>023-231400-
MARYLAND EASTERN SHORE

CITY           SKY/WX    TMP DP  RH WIND       PRES   REMARKS
OCEAN CITY     CLOUDY    43  43 100 NE10      30.56R FOG
SALISBURY      FOG       42  42 100 NE9       30.56S VSB 1
BAY BRIDGE AP* DRIZZLE   39  39 100 N3        30.60R FOG
CAMBRIDGE*     CLOUDY    41  41 100 NE5       30.58S FOG
EASTON*        DRIZZLE   41  39  93 E6        30.61R

$$

MDZ017>025-231400-
SOUTHERN MARYLAND

CITY           SKY/WX    TMP DP  RH WIND       PRES   REMARKS
PATUXENT RIVER CLOUDY    41  41 100 NE9       30.58R FOG
ST INIGOES     CLOUDY    42  31  64 N5        30.57R HAZE
LEONARDTOWN*   CLOUDY    41  39  93 CALM      30.59R

$$

MDZ003>005-231400-
NORTH CENTRAL MARYLAND

CITY           SKY/WX    TMP DP  RH WIND       PRES   REMARKS
FREDERICK*     CLOUDY    41  41 100 CALM      30.61S
HAGERSTOWN APT CLOUDY    40  38  93 E5        30.54R FOG
WESTMINSTER*   CLOUDY    39  39 100 SE5       30.56S FOG

$$

MDZ501>502-231400-
WESTERN MARYLAND

CITY           SKY/WX    TMP DP  RH WIND       PRES   REMARKS
OAKLAND*       CLOUDY    34  34 100 SE16      30.37S VSB<1/4 WCI  23
CUMBERLAND*    CLOUDY    41  41 100 SE3       30.53F

$$

VAZ025>031-231400-
SHENANDOAH VALLEY

CITY           SKY/WX    TMP DP  RH WIND       PRES   REMARKS
WINCHESTER*    CLOUDY    37  36  93 E7        30.55S WCI  32
FRONT ROYAL*   CLOUDY    39  39 100 CALM      30.52S
LURAY*         CLOUDY    41  41 100 CALM      30.52S
NEW MARKET*    CLOUDY    40  39  97 CALM      30.51R
STAUNTON*      CLOUDY    41  40  97 S3        30.53R FOG
WAYNESBORO*    CLOUDY    40  40  99 E6        30.51R

$$

WVZ021-048>050-054>055-231400-
EASTERN WEST VIRGINIA PANHANDLE

CITY           SKY/WX    TMP DP  RH WIND       PRES   REMARKS
MARTINSBURG    CLOUDY    39  38  96 SE5       30.53S
PETERSBURG*    CLOUDY    41  40  97 CALM      30.48S FOG

$$

VAZ036>039-050-231400-
CENTRAL FOOTHILLS

CITY           SKY/WX    TMP DP  RH WIND       PRES   REMARKS
CHARLOTTESVILL CLOUDY    43  41  93 NE5       30.55R FOG
CULPEPER*      CLOUDY    41  40  94 CALM      30.58S FOG
ORANGE*        CLOUDY    39  37  93 CALM      30.56S
GORDONSVILLE*  CLOUDY    41  41 100 CALM      30.56R
WARRENTON*     CLOUDY    41  38  89 CALM      30.57R FOG

$$

VAZ055>057-231400-
NORTH AND CENTRAL PIEDMONT

CITY           SKY/WX    TMP DP  RH WIND       PRES   REMARKS
FREDERICKSBRG* DRIZZLE   41  41 100 NE5       30.58S
STAFFORD*      CLOUDY    41  41 100 NE5       30.62S FOG

$$

NCZ024-NYZ072-PAZ021-071-VAZ022-071-231400-
OTHER REGIONAL OBSERVATIONS

CITY           SKY/WX    TMP DP  RH WIND       PRES   REMARKS
NEW YORK CITY  CLOUDY    37  31  78 NE9       30.66R WCI  30
PHILADELPHIA   LGT RAIN  38  35  89 NE5       30.62R WCI  34
PITTSBURGH     LGT RAIN  44  43  96 SE8       30.28F FOG
ROANOKE        DRIZZLE   45  45 100 S7        30.53R FOG
RICHMOND       DRIZZLE   43  42  97 NE5       30.56S FOG
RALEIGH        FOG       52  52 100 NE8       30.51R VSB 1/8

$$

ANZ530>537-231400-
MARINE OBSERVATIONS

STATION/POSITION TIME  TEMP    WIND        PRES
                       AIR SEA DIR/SP/G
                 (UTC) (F)     (DEG/KT/KT) (MB)
THOMAS PT LIGHT  1300   39 42   50/  4/  6   N/A
BALT KEY BRIDGE  1248   39      70/  6/  7 1036.5R
COVE POINT       1248   40      50/  6/  7 1036.2R
LEWISETTA        1248   42 48   50/  4/  8 1035.3R
SOLOMONS ISLAND  1248   41 43   30/  4/  6 1035.1R
PINEY POINT      1236           50/  5/  7   N/A

$$




USA.gov is the U.S. government's official web portal to all federal, state and local government web resources and services.